Location: Medlow Airstrip Trail, Medlow Bath NSW 2780, Australia
(33.6682°S, 150.3233°E)
Time: 08:35:52
(UTC+11:00)

Explorer 11/Cluster Stage 4 - Pass Details

Date: 26 September 2019
Orbit: 467 x 1259 km, 28.8° (Epoch: 19 October)

Event Time Altitude Azimuth Distance (km) Brightness Sun altitude
Rises 07:04:12 0° 315° (NW) 2,592 8.9 15.9°
Reaches altitude 10° 07:06:38 10° 331° (NNW) 1,786 8.3 16.4°
Maximum altitude 07:09:51 22° 23° (NNE) 1,297 8.3 17.0°
Drops below altitude 10° 07:13:32 10° 74° (ENE) 2,085 11.3 17.8°
Sets 07:16:38 0° 88° (E) 3,162 11.3 18.4°
